Overview Statistics Trail Chart Weather Telemetry Raw packets
 

This is the latest recevied weather packets stored in our database for station/object KC2TER. If no packets are shown the sender has not sent any weather packets the latest 10 day(s).

<< 103 104 105 106 107 108 109 >>
Time Temp. Humidity Pressure Rain* Wind** Luminosity Snow
1787785069 24.44° C 80% 1017.4 hPa 0 mm - 15 W/m² -
1787784764 24.44° C 79% 1017.4 hPa 0 mm - 17 W/m² -
1787784463 25° C 78% 1017.6 hPa 0 mm - 22 W/m² -
1787784163 25° C 76% 1017.4 hPa 0 mm - 27 W/m² -
1787783859 25.56° C 75% 1017.3 hPa 0 mm - 31 W/m² -
1787783556 25.56° C 76% 1017.5 hPa 0 mm - 34 W/m² -
1787783250 26.11° C 75% 1017.5 hPa 0 mm - 36 W/m² -
1787782945 26.67° C 75% 1017.6 hPa 0 mm - 39 W/m² -
1787782644 26.67° C 73% 1017.7 hPa 0 mm - 44 W/m² -
1787782340 26.67° C 72% 1017.4 hPa 0 mm - 50 W/m² -
1787782035 26.67° C 73% 1017.6 hPa 0 mm - 59 W/m² -
1787781730 26.67° C 73% 1017.3 hPa 0 mm - 69 W/m² -
1787781428 26.67° C 74% 1017.5 hPa 0 mm - 87 W/m² -
1787781128 26.11° C 76% 1017.7 hPa 0 mm - 99 W/m² -
1787780827 25.56° C 76% 1017.6 hPa 0 mm - 98 W/m² -
1787780521 25.56° C 78% 1017.6 hPa 0 mm - 88 W/m² -
1787780216 25.56° C 78% 1017.7 hPa 0 mm - 81 W/m² -
1787779911 26.67° C 76% 1017.6 hPa 0 mm - 103 W/m² -
1787779606 26.67° C 75% 1017.9 hPa 0 mm - 108 W/m² -
1787779299 26.67° C 75% 1017.5 hPa 0 mm - 119 W/m² -
1787778994 26.67° C 73% 1017.6 hPa 0 mm - 133 W/m² -
1787778690 26.67° C 72% 1017.9 hPa 0 mm - 147 W/m² -
1787778386 26.67° C 72% 1017.7 hPa 0 mm - 222 W/m² -
1787778081 26.67° C 73% 1017.9 hPa 0 mm - 254 W/m² -
1787777780 26.67° C 71% 1017.8 hPa 0 mm - 135 W/m² -

* Rain latest hour (hover to see other rain measurements)
** Current wind speed in m/s (hover to see current wind gust speed)